DELTA 1 DEB, 10718

Orbit data source: Space-Track

DELTA 1 DEB, 10718 is space debris in SSO originally from a launch on Thu, 29 Jul 1976 UTC launched from the Air Force Western Test Range (AFWTR). Debris objects in space refer to the collection of defunct objects orbiting the Earth. Examples of debris include non-operational satellites, rocket bodies, and fragments generated from explosions, collisions, or faulty payload assembly.

Loading next visibility...
Identifier
10718, 1976-077AP
Orbit
SSO
Country
Flag of USUS
Related business
Manufacturer
Unknown
Mission
Spacecraft
Bus & Motor
Unknown
Mass
Unknown
Launch date (UTC)
1976-07-29 (49 years ago)
Launch vehicle
Unknown
Launch site
Air Force Western Test Range (AFWTR)
Object type
Payload
Rocket body
Debris
Shape & HBR
Unknown
Radar Cross Section
Small (<0.1 m²)

Expand to show TLE details & history
Last TLE update: 1 day ago

TLE from 1 day ago
0 DELTA 1 DEB
1 10718U 76077AP  25241.57540946  .00000009  00000-0  37409-3 0  9993
2 10718 101.6468 274.9334 0051997 267.5901 221.4080 12.42834342224545
Epoch: 2025-08-29T13:48Z
TLE epoch observation values (Epoch: 2025-08-29T13:48:35.377Z)
Latitude
50.03231°
Longitude
-76.07017°
Altitude
1,533.149 km
Speed
7.09 km/s
True Right ascension
07h 16m 23s
True Declination
49° 52' 46"
Sunlit
Object was in daylight at epoch
Visualization orbit readout
Latitude
Unknown
Longitude
Unknown
Altitude
Unknown
Speed
Unknown
Apparent Right ascension
Unknown
Apparent Declination
Unknown
Sunlit
N/A
Visualization observer readout
Local Sidereal Time
16:44:04
Azimuth
Unknown
Elevation
Unknown
Doppler factor
Unknown
Orbital elements
Apogee altitude
1,533.084 km
Perigee altitude
1,451.238 km
Semi-major axis
7,870.298 km
Eccentricity
0.0052
Inclination
101.6468°
RAAN
274.9334°
Arg. of periapsis
267.5901°
True anomaly
221.01582°
Mean anomaly
221.408°
Eccentric anomaly
221.21172°
Mean motion
3.10854 °/min
Orbital period
115.81 mins
BSTAR
0.00037409
Loading maneuver chart data...
Computing Atmospheric mass density...
Loading historical data...
Loading historical data...
Loading historical data...
Loading historical data...
Loading historical data...
Loading historical data...
Loading historical data...

Documentation

Showing up to 5 results
|